Regional Weather Roundup
Issued by NWS

Home | Current Version | Previous Version | Text Only | Print | Product List | Glossary On
Versions: 1 2 3 4 5 6 7 8 9 10 11 12 13 14 15 16 17 18 19 20 21 22 23 24 25 26 27
000
ASUS45 KTFX 190310
RWRMT
MONTANA REGIONAL WEATHER ROUNDUP
NATIONAL WEATHER SERVICE GREAT FALLS MT
800 PM MST THU JAN 18 2018

NOTE: "FAIR" INDICATES FEW OR NO CLOUDS BELOW 12000 FEET WITH NO
SIGNIFICANT WEATHER AND/OR OBSTRUCTIONS TO VISIBILITY.

MTZ001>007-043-190400-
WEST OF THE DIVIDE

CITY           SKY/WX    TMP DP  RH WIND       PRES   REMARKS
KALISPELL      MOCLDY    38  34  85 S8        29.72F
MISSOULA       LGT RAIN  34  33  96 CALM      29.77F
BUTTE          LGT SNOW  34  31  88 N8        29.74R FOG     WCI  27
MULLAN PASS    LGT SNOW  26  26 100 S5        29.70S VSB 3/4
ANACONDA         N/A     34  32  93 E5        29.73F
DEER LODGE       N/A     34  34 100 W5        29.76S
EUREKA           N/A     41  25  52 MISG      29.71S
HAMILTON         N/A     36  36 100 N5        29.75F
PLAINS           N/A     35  32  89 CALM      29.81S
RONAN            N/A     34  34 100 SE10      29.79S WCI  26
$$

MTZ008-052>055-190400-
SOUTHWEST MONTANA

CITY           SKY/WX    TMP DP  RH WIND       PRES   REMARKS
BOZEMAN        FAIR      41  29  62 N13       29.66F
DILLON         FAIR      36  29  75 S22G31    29.64F WCI  25
ENNIS          CLOUDY    43  30  61 S32G41    29.74F
W YELLOWSTONE  CLOUDY    36  28  75 S17G24    29.85F WCI  25
THREE FORKS      N/A     46  32  58 NW7       29.70R
TWIN BRIDGES     N/A     44  28  53 S3        29.68F
$$

MTZ009-010-012-014-046-048-049-054-190400-
EAST SLOPES AND CENTRAL MONTANA

CITY           SKY/WX    TMP DP  RH WIND       PRES   REMARKS
CUT BANK       FAIR      34  30  85 SW13      29.63F WCI  25
GREAT FALLS    CLOUDY    40  32  73 SW14      29.69S
MALMSTROM AFB  LGT RAIN  40  35  81 SW12      29.70R
HELENA         CLOUDY    38  35  89 SE5       29.73S
AUGUSTA        CLOUDY    36  31  81 W12       29.68S WCI  28
BOWMANS CRNR   CLOUDY    35  32  89 S7        29.68S WCI  29
CHOTEAU          N/A     37  32  81 CALM      29.70S
FAIRFIELD      CLOUDY    37  32  81 W6        29.67S
POWER          CLOUDY    35  31  87 SW5       29.69R
RAYNESFORD     LGT RAIN  41  33  72 W8        29.69F
ULM            LGT RAIN  38  34  83 SW5       29.70R
WHITE SULPHUR    N/A     36  30  80 NE8       29.70F WCI  29
$$

MTZ011-013-016-021-045-047-050-051-190400-
NORTH CENTRAL MONTANA

CITY           SKY/WX    TMP DP  RH WIND       PRES   REMARKS
HAVRE          CLOUDY    37  32  82 SW10      29.63R WCI  30
LEWISTOWN      CLOUDY    37  32  82 W10       29.69F WCI  30
N BAR RANCH    CLOUDY    37  28  70 SW5       29.71S
CHINOOK          N/A     37  34  87 W13       29.61R WCI  29
DENTON         MOCLDY    39  32  75 MISG      29.64F
GEYSER         LGT RAIN  37  33  87 SW10      29.69F WCI  29
STANFORD       MOCLDY    40  33  75 W13       29.68S
WINIFRED       LGT RAIN  40  33  75 W6        29.66F
$$

MTZ017>020-022>027-061-062-190400-
NORTHEAST MONTANA

CITY           SKY/WX    TMP DP  RH WIND       PRES   REMARKS
GLASGOW        CLOUDY    34  29  82 CALM      29.60F
GLENDIVE       FAIR      32  26  78 S10       29.66F WCI  24
JORDAN           N/A     35  31  85 W6        29.64F WCI  30
MALTA          MOCLDY    36  30  80 CALM      29.61F
SIDNEY         CLOUDY    35  29  78 SW15      29.62F WCI  25
WOLF POINT     CLOUDY    32  26  78 W3        29.61F
PLENTYWOOD       N/A     41  30  65 W9        29.55F
POPLAR           N/A     34  28  80 CALM      29.62F
SCOBEY           N/A     41  27  57 SW12      29.57F
$$

MTZ028>42-056>058-190400-
SOUTHCENTRAL AND SOUTHEAST MONTANA

CITY           SKY/WX    TMP DP  RH WIND       PRES   REMARKS
BAKER          FAIR      35  29  78 W5        29.70F
BILLINGS       FAIR      43  28  55 W13       29.67F
LIVINGSTON     FAIR      51  31  46 SW38G51   29.63F
MILES CITY     FAIR      34  26  72 S9        29.67F WCI  27
BIG TIMBER     CLEAR     46  28  49 SW10      29.67F
EKALAKA          N/A     45  25  45 SE9       29.70F
FORSYTH          N/A     32  27  80 E5        29.67S
HARLOWTON      MOCLDY    36  31  79 N12       29.66  WCI  28
LAUREL           N/A     43  27  52 SW14      29.67F
$$

REGIONAL REPORTS...DAKOTAS

CITY           SKY/WX    TMP DP  RH WIND       PRES   REMARKS
WILLISTON      CLOUDY    52  28  39 S9        29.60F
MINOT          FAIR      43  29  57 SW18      29.53F
DICKINSON      FAIR      40  28  62 W16       29.62F
BEACH          FAIR      39  28  65 SW9       29.70S
CROSBY         MOCLDY    37  32  81 SW20      29.53R WCI  27
TIOGA          FAIR      37  34  87 W13G20    29.56F WCI  29
WATFORD CITY   FAIR      37  30  75 SW13      29.60S WCI  29
BISMARCK       FAIR      27  24  89 CALM      29.66S
GRAND FORKS    MOCLDY    26  22  84 S10       29.58F WCI  16
FARGO          FAIR      31  26  82 S10       29.64F WCI  22
BUFFALO SD       N/A     43  28  55 S7        29.63F
RAPID CITY     FAIR      36  26  67 W3        29.72F
$$

REGIONAL REPORTS...WYOMING/IDAHO/WASHINGTON

CITY           SKY/WX    TMP DP  RH WIND       PRES   REMARKS
GILLETTE       FAIR      46  31  55 SW25G32   29.73F
SHERIDAN       FAIR      50  29  44 N3        29.70F
BUFFALO WY     FAIR      48  25  40 SW9       29.74F
CODY           FAIR      32  26  78 SE8       29.76F WCI  25
YELLOWSTONE LA   N/A     30  26  85 W3        29.91F
IDAHO FALLS    CLOUDY    47  32  56 S10       29.83F
SALMON         RAIN      38  33  82 W5        29.73R
BOISE          RAIN      41  38  89 NE7       29.86S FOG
SPOKANE        CLOUDY    35  35 100 SE7       29.78F WCI  29
$$

REGIONAL REPORTS...ALBERTA

CITY           SKY/WX    TMP DP  RH WIND       PRES   REMARKS
CALGARY        PTCLDY    36  18  48 SW10G21   29.44F WCI  28
CARDSTON         N/A     36  21  55 SW7         N/A  WCI  30
EDMONTON       PTCLDY    39  19  45 W13G20    29.36R WCI  32
FORT MCMURRAY  CLOUDY    36  32  87 SW7       29.20F WCI  30
HIGH LEVEL     LGT SNOW  27  25  93 CALM      29.22S FOG
LETHBRIDGE     MOCLDY    37  27  65 SW23G29   29.58S WCI  26
LLOYDMINSTER   PTCLDY    32  27  80 W15       29.31S WCI  22
MEDICINE HAT   CLOUDY    37  32  81 SW15G28   29.50R WCI  28
MILK RIVER       N/A     36  30  80 W18         N/A  WCI  25
PEACE RIVER    CLOUDY    34  28  80 W7        29.29S WCI  28
PINCHER CREEK  CLOUDY    36  21  55 SW18G24   29.61S WCI  25
WATERTON GATE    N/A     36  16  44 SW18G26     N/A  WCI  25
$$

REGIONAL REPORTS...SASKATCHEWAN

CITY           SKY/WX    TMP DP  RH WIND       PRES   REMARKS
CORONACH         N/A     37  32  81 W10         N/A  WCI  30
CYPRESS HILLS    N/A     37  27  65 W18G28      N/A  WCI  27
ESTEVAN        MOCLDY    34  28  80 SW8       29.51F WCI  27
MOOSE JAW        N/A     41  30  65 W17G23      N/A
PRINCE ALBERT  PTCLDY    23  21  93 W3        29.28S
REGINA         PTCLDY    36  30  80 W3        29.45R
ROCKGLEN         N/A     37  30  75 W17         N/A  WCI  28
SASKATOON      MOCLDY    34  30  86 SW12      29.34F WCI  25
SWIFT CURRENT  CLOUDY    39  30  70 SW14      29.46F WCI  31
VAL MARIE        N/A     37  30  75 SW16        N/A  WCI  28
$$




USA.gov is the U.S. government's official web portal to all federal, state and local government web resources and services.